Home > Weather > Billings > Past weeks

Flag for U.S.A. Weather for the Past 2 Weeks in Billings, Montana, U.S.A.

Now
34 °F

Overcast.


Feels Like: 25 °F
Forecast: 38 / 52 °F
Wind: 14 mph from Southwest

Location: Billings Logan International Airport

Current Time: Feb 13, 2016 at 6:04:44 AM

Latest Report: Feb 13, 2016 at 4:53 AM


Visibility: 10 mi

Pressure: 29.95 "Hg (26.62 "Hg at 946m altitude)

Humidity: 85%

Dew point: 30 °F

Location of BillingsLocation

Historic Weather in Billings — Graph

°F

Billings Temperature Yesterday

Maximum temperature yesterday: 45 °F (at 3:53 PM)
Minimum temperature yesterday: 31 °F (at 1:53 AM)
Average temperature yesterday: 36 °F

High & Low Weather Summary for the Past Weeks

 TemperatureHumidityPressure
High65 °F (Feb 10, 2:53 PM)92% (Feb 1, 9:53 PM)30.55 "Hg (Feb 1, 9:53 PM)
Low19 °F (Feb 3, 6:53 AM)17% (Feb 10, 12:53 PM)29.52 "Hg (Jan 29, 10:53 PM)
Average37 °F50%30.11 "Hg
* Reported Jan 29 4:53 AM — Feb 13 4:53 AM, Billings, Weather by CustomWeather, © 2016

Note: Actual official high and low records may vary slightly from our data, if they occured in-between our weather recording intervals... More about our weather records

Advertising

Billings Weather History for the Previous 24 Hours

 ConditionsComfort  
Time TempWeatherWind HumidityBarometerVisibility
4:53 AM
Sat, Feb 13
34 °FOvercast.14 mph85%29.95 "Hg10 mi
3:53 AM33 °FOvercast.13 mph85%29.98 "Hg10 mi
2:53 AM32 °FOvercast.7 mph88%30.01 "Hg10 mi
1:53 AM33 °FOvercast.5 mph85%30.03 "Hg10 mi
12:53 AM32 °FPartly cloudy.No wind88%30.06 "Hg10 mi
11:53 PM
Fri, Feb 12
35 °FPassing clouds.5 mph82%30.06 "Hg10 mi
10:53 PM35 °FPassing clouds.3 mph82%30.09 "Hg10 mi
9:53 PM34 °FPassing clouds.No wind85%30.13 "Hg10 mi
8:53 PM35 °FPassing clouds.6 mph82%30.15 "Hg10 mi
7:53 PM36 °FPassing clouds.8 mph82%30.17 "Hg10 mi
6:53 PM38 °FPassing clouds.3 mph73%30.16 "Hg10 mi
5:53 PM41 °FPassing clouds.6 mph67%30.16 "Hg10 mi
4:53 PM44 °FBroken clouds.7 mph63%30.19 "Hg10 mi
3:53 PM45 °FBroken clouds.8 mph58%30.19 "Hg10 mi
2:53 PM44 °FMostly cloudy.6 mph63%30.21 "Hg10 mi
1:53 PM43 °FMostly cloudy.7 mph65%30.24 "Hg10 mi
12:53 PM40 °FPartly sunny.9 mph73%30.27 "Hg10 mi
11:53 AM38 °FOvercast.10 mph76%30.29 "Hg10 mi
10:53 AM36 °FMostly cloudy.10 mph79%30.31 "Hg10 mi
9:53 AM33 °FLow clouds.10 mph88%30.32 "Hg10 mi
8:53 AM32 °FMostly cloudy.10 mph88%30.34 "Hg10 mi
8:03 AM31 °FMostly cloudy.9 mph92%30.29 "Hg8 mi
7:53 AM31 °FMostly cloudy.6 mph92%30.35 "Hg8 mi
7:04 AM31 °FOvercast.7 mph92%30.28 "Hg7 mi
6:53 AM31 °FMostly cloudy.6 mph92%30.33 "Hg7 mi
Weather by CustomWeather, © 2016

See weather overviewHow to use our weather pages